sat.trackr.live / text

‹ back to catalog

STARLINK-33840

NORAD 63682 · 2025-085U

PAYLOAD ACTIVE UNKNOWN

§ Identity

Operator
Country
US
Launch date
2025-04-28
Launch site
AFETR
Launch vehicle
Mass (kg)
RCS (m²)

Purposes: comms

External: N2YO · Heavens-Above · Gunter

§ Orbital elements

Epoch: 2026-09-20T18:34:41.609280Z

Period
94.27 min
Inclination
43.0014°
Eccentricity
0.0001760
Mean motion
15.27597906 rev/d
Perigee alt
481.8 km
Apogee alt
484.2 km
Semi-major
6,861.1 km
B*
7.1221e-4
RAAN
9.3458°
Arg perigee
281.2139°
Mean anomaly
78.8515°
Rev number
7,870

§ Raw data

STARLINK-338401 63682U 25085U   26263.77409270  .00019399  00000+0  71221-3 0  99962 63682  43.0014   9.3458 0001760 281.2139  78.8515 15.27597906 78705

JSON: /api/v1/satellites/63682 · /tle

For live sub-satellite position, see the globe view (requires WebGL).

§ Visibility from observer

Set your observer location to see the next 7 days of passes ≥ 10°. The values pass through the URL so the page stays shareable.

No JS? Fill the form by hand. The geolocation button needs JavaScript.